Weather History for Lewiston, ID

Change the Weather History Date:

Thursday, June 20, 2013

  Actual Average Record
Temperature  
Mean Temperature 58 °F 67 °F  
Max Temperature 65 °F 80 °F 103 °F (1918)
Min Temperature 51 °F 54 °F 39 °F (1894)
Degree Days  
Heating Degree Days 7 2  
Month to date heating degree days 35 57  
Since 1 June heating degree days 35 57  
Since 1 July heating degree days 4628 5154  
Cooling Degree Days 0 4  
Month to date cooling degree days 61 49  
Year to date cooling degree days 118 81  
Since 1 June cooling degree days 61 49  
Growing Degree Days 8 (Base 50)    
Moisture  
Dew Point 45 °F    
Average Humidity 66    
Maximum Humidity 89    
Minimum Humidity 43    
Precipitation  
Precipitation 0.16 in 0.04 in 0.94 in (1950)
Month to date precipitation 1.30 0.91  
Year to date precipitation 5.17 6.85  
Snow  
Snow 0.00 in 0.00 in 0.00 in (1995)
Month to date snowfall 0.0 0.0  
Since 1 June snowfall 0.0 0.0  
Since 1 July snowfall 2.6 10.5  
Snow Depth 0.00 in    
Sea Level Pressure  
Sea Level Pressure 29.97 in    
Wind  
Wind Speed 9 mph (WSW)    
Max Wind Speed 23 mph    
Max Gust Speed 31 mph    
Visibility 10 miles    
Events Rain    
T = Trace of Precipitation, MM = Missing Value Source: NWS Daily Summary

Daily Weather History Graph

Daily Weather History Graph

Search for Another Location

Airport:

Trip Planner

Search our weather history database for the weather conditions in past years. The results will help you decide how hot, cold, wet, or windy it might be!

Date:

Astronomy

Jun. 20, 2013 Rise Set
Actual Time 4:55 AM PDT 8:43 PM PDT
Civil Twilight 4:16 AM PDT 9:23 PM PDT
Nautical Twilight 3:23 AM PDT 10:16 PM PDT
Astronomical Twilight 2:07 AM PDT 11:32 PM PDT
Moon 5:45 PM PDT (6/20) 2:33 AM PDT (6/20)
Length of Visible Light 17h 06m
Length of Day
15h 48m
Waxing Gibbous, 89% of the Moon is Illuminated
Jun 20
Waxing Gibbous
Jun 23
Full
Jun 29
Last Quarter
Jul 8
New
Jul 15
First Quarter

Hourly Weather History & Observations

Time (PDT) Temp. Dew Point Humidity Pressure Visibility Wind Dir Wind Speed Gust Speed Precip Events Conditions
12:56 AM 52.0 °F 48.0 °F 86% 29.91 in 10.0 mi SW 5.8 mph - 0.02 in Rain Light Rain
1:56 AM 52.0 °F 46.9 °F 83% 29.90 in 10.0 mi SSW 12.7 mph - 0.02 in Rain Light Rain
2:56 AM 52.0 °F 48.0 °F 86% 29.90 in 10.0 mi SSW 5.8 mph - 0.02 in Rain Light Rain
3:56 AM 53.1 °F 48.0 °F 83% 29.90 in 9.0 mi SSW 5.8 mph - 0.01 in Rain Light Rain
4:56 AM 52.0 °F 46.9 °F 83% 29.91 in 7.0 mi SSW 6.9 mph - 0.08 in Rain Light Rain
5:56 AM 52.0 °F 48.9 °F 89% 29.92 in 10.0 mi Calm Calm - 0.03 in Rain Light Rain
6:56 AM 53.1 °F 48.0 °F 83% 29.92 in 10.0 mi Calm Calm - 0.01 in Rain Light Rain
7:56 AM 55.0 °F 45.0 °F 69% 29.93 in 10.0 mi SSW 12.7 mph 16.1 mph 0.00 in   Overcast
8:56 AM 57.0 °F 45.0 °F 64% 29.94 in 10.0 mi SSW 12.7 mph - N/A   Overcast
9:56 AM 60.1 °F 43.0 °F 53% 29.93 in 10.0 mi SSW 21.9 mph 28.8 mph N/A   Mostly Cloudy
10:56 AM 60.1 °F 41.0 °F 49% 29.94 in 10.0 mi SSW 16.1 mph 31.1 mph N/A   Overcast
11:56 AM 62.1 °F 42.1 °F 48% 29.95 in 10.0 mi SSW 16.1 mph 20.7 mph N/A   Mostly Cloudy
12:56 PM 62.1 °F 39.9 °F 44% 29.96 in 10.0 mi SSW 18.4 mph 21.9 mph N/A   Overcast
1:56 PM 62.1 °F 41.0 °F 46% 29.96 in 10.0 mi NW 6.9 mph - 0.00 in   Overcast
2:56 PM 64.0 °F 41.0 °F 43% 29.96 in 10.0 mi WNW 5.8 mph - N/A   Mostly Cloudy
3:56 PM 64.9 °F 42.1 °F 43% 29.96 in 10.0 mi NNW 9.2 mph - N/A   Overcast
4:56 PM 62.1 °F 45.0 °F 53% 29.97 in 10.0 mi NW 13.8 mph 21.9 mph N/A   Clear
5:56 PM 61.0 °F 45.0 °F 56% 29.99 in 10.0 mi WNW 4.6 mph - N/A   Clear
6:56 PM 61.0 °F 46.9 °F 60% 30.01 in 10.0 mi ENE 5.8 mph - N/A   Partly Cloudy
7:56 PM 57.9 °F 46.0 °F 65% 30.03 in 10.0 mi NE 6.9 mph - N/A   Clear
8:56 PM 55.9 °F 46.0 °F 69% 30.05 in 10.0 mi NE 6.9 mph - N/A   Clear
9:56 PM 55.0 °F 46.0 °F 72% 30.07 in 10.0 mi NE 5.8 mph - N/A   Overcast
10:56 PM 54.0 °F 46.9 °F 77% 30.07 in 10.0 mi Calm Calm - N/A   Mostly Cloudy
11:56 PM 54.0 °F 46.9 °F 77% 30.08 in 9.0 mi NW 4.6 mph - 0.00 in Rain Light Rain